FW1003 Weather Reports


Display with metric or nautical units.
time (UTC)temp
F
wind
direction
speed
MPH
gust
MPH
rain 1hr
in
rain 24hr
in
rain mn
in
humidity
%
barometer
mb
20201031220153 71 350 0.0 0.0 0.00 0.00 0.00 85 1011.8
20201031214533 71 350 0.0 0.0 0.00 0.00 0.00 85 1011.9
20201031213111 71 350 0.0 0.0 0.00 0.00 0.00 85 1012.1
20201031211530 72 350 0.0 0.0 0.00 0.00 0.00 85 1012.1
20201031210114 72 349 0.0 0.0 0.00 0.00 0.00 85 1012.1
20201031204615 72 349 0.0 0.0 0.00 0.00 0.00 83 1012.2
20201031203049 73 349 0.0 0.0 0.00 0.00 0.00 83 1012.1
20201031201537 73 349 0.0 0.0 0.00 0.00 0.00 83 1012.2
20201031200034 74 349 0.0 0.0 0.00 0.00 0.00 83 1012.3
20201031194537 74 349 0.0 0.0 0.00 0.00 0.00 82 1012.4
20201031193034 74 349 0.0 3.0 0.00 0.00 0.00 82 1012.4
20201031191604 74 348 0.0 3.0 0.00 0.00 0.00 82 1012.3
20201031190109 74 350 0.0 1.0 0.00 0.00 0.00 81 1012.2
20201031184619 74 348 0.0 2.0 0.00 0.00 0.00 80 1012.1
20201031181622 74 347 0.0 2.0 0.00 0.00 0.00 78 1012.0
20201031180122 75 348 0.0 2.0 0.00 0.00 0.00 78 1011.9
20201031174605 75 342 0.0 3.0 0.00 0.00 0.00 78 1011.8
20201031173108 75 5 1.0 3.0 0.00 0.00 0.00 78 1011.7
20201031171524 76 338 0.0 6.0 0.00 0.00 0.00 78 1011.6
20201031170047 76 355 0.0 5.0 0.00 0.00 0.00 78 1011.6
20201031164557 76 355 0.0 6.0 0.00 0.00 0.00 78 1011.4
20201031163050 76 350 1.0 5.0 0.00 0.00 0.00 78 1011.4
20201031161528 76 355 0.0 6.0 0.00 0.00 0.00 79 1011.3
20201031160058 76 340 0.0 6.0 0.00 0.00 0.00 79 1011.3
20201031154557 76 329 0.0 8.0 0.00 0.00 0.00 78 1011.2
20201031153036 77 341 1.0 6.0 0.00 0.00 0.00 77 1011.1
20201031151551 77 327 1.0 8.0 0.00 0.00 0.00 76 1011.1
20201031150026 77 344 1.0 8.0 0.00 0.00 0.00 76 1011.1
20201031144541 77 336 1.0 8.0 0.00 0.00 0.00 76 1011.1
20201031143029 78 15 4.0 10.0 0.00 0.00 0.00 76 1011.0
20201031141516 78 340 3.0 14.0 0.00 0.00 0.00 75 1011.0
20201031140030 78 325 4.0 11.0 0.00 0.00 0.00 76 1011.0
20201031133038 79 302 2.0 10.0 0.00 0.00 0.00 75 1010.6
20201031131549 79 336 7.0 13.0 0.00 0.00 0.00 74 1010.6
20201031130100 80 252 5.0 11.0 0.00 0.00 0.00 73 1010.6
20201031124531 80 344 4.0 10.0 0.00 0.00 0.00 72 1010.5
20201031123046 80 284 4.0 11.0 0.00 0.00 0.00 72 1010.5
20201031121517 81 5 3.0 11.0 0.00 0.00 0.00 71 1010.7
20201031120021 81 329 6.0 13.0 0.00 0.00 0.00 70 1010.9
20201031114516 81 317 5.0 12.0 0.00 0.00 0.00 71 1010.9
20201031113314 82 346 4.0 11.0 0.00 0.00 0.00 70 1010.9
20201031113024 82 311 6.0 11.0 0.00 0.00 0.00 69 1010.8
20201031111728 81 360 5.0 11.0 0.00 0.00 0.00 70 1010.9
20201031110350 81 355 4.0 13.0 0.00 0.00 0.00 71 1010.9
20201031110019 81 355 4.0 13.0 0.00 0.00 0.00 70 1011.0
20201031104702 82 337 5.0 12.0 0.00 0.00 0.00 68 1011.0
20201031101842 83 317 2.0 10.0 0.00 0.00 0.00 68 1011.1
20201031100155 83 337 2.0 8.0 0.00 0.00 0.00 68 1011.4
20201031094712 82 355 1.0 8.0 0.00 0.00 0.00 69 1011.5
20201031093134 82 323 2.0 10.0 0.00 0.00 0.00 68 1011.6
20201031091714 83 317 4.0 13.0 0.00 0.00 0.00 68 1011.7
20201031090120 82 350 1.0 12.0 0.00 0.00 0.00 69 1011.8
20201031084659 82 324 2.0 10.0 0.00 0.00 0.00 69 1011.9
20201031083214 81 338 2.0 9.0 0.00 0.00 0.00 70 1012.1
20201031081627 82 317 0.0 6.0 0.00 0.00 0.00 70 1012.4
20201031080057 82 342 2.0 9.0 0.00 0.00 0.00 70 1012.6
20201031074611 81 355 2.0 10.0 0.00 0.00 0.00 70 1012.7
20201031073056 80 344 0.0 8.0 0.00 0.00 0.00 72 1012.7
20201031071542 80 331 2.0 8.0 0.00 0.00 0.00 72 1012.8
20201031070114 80 360 1.0 8.0 0.00 0.00 0.00 72 1012.9
20201031064559 79 330 2.0 5.0 0.00 0.00 0.00 73 1013.0
20201031063042 79 351 1.0 5.0 0.00 0.00 0.00 74 1013.0
20201031061546 78 57 2.0 5.0 0.00 0.00 0.00 77 1013.0
20201031060025 77 60 1.0 4.0 0.00 0.00 0.00 79 1013.1
20201031054551 75 347 0.0 2.0 0.00 0.00 0.00 82 1013.1
20201031053043 74 344 0.0 1.0 0.00 0.00 0.00 84 1013.0
20201031051542 73 343 0.0 0.0 0.00 0.00 0.00 86 1012.8
20201031050021 72 343 0.0 1.0 0.00 0.00 0.00 86 1012.6
20201031044521 71 343 0.0 0.0 0.00 0.00 0.00 87 1012.7
20201031043142 72 343 0.0 1.0 0.00 0.00 0.00 86 1012.7
20201031041805 72 341 0.0 1.0 0.00 0.00 0.00 86 1012.6
20201031040211 72 340 0.0 2.0 0.00 0.00 0.00 86 1012.5
20201031034804 72 338 0.0 1.0 0.00 0.00 0.00 85 1012.4
20201031033258 72 338 0.0 2.0 0.00 0.00 0.00 85 1012.5
20201031031619 73 338 0.0 1.0 0.00 0.00 0.00 84 1012.5
20201031030225 73 338 0.0 0.0 0.00 0.00 0.00 84 1012.5
20201031024705 73 338 0.0 1.0 0.00 0.00 0.00 83 1012.3
20201031023137 73 338 0.0 2.0 0.00 0.00 0.00 83 1012.3
20201031021641 73 335 0.0 2.0 0.00 0.00 0.00 83 1012.3
20201031020122 74 336 0.0 2.0 0.00 0.00 0.00 83 1012.4
20201031014611 74 333 0.0 3.0 0.00 0.00 0.00 83 1012.2
20201031013105 74 338 0.0 1.0 0.00 0.00 0.00 82 1012.1
20201031011611 75 338 1.0 5.0 0.00 0.00 0.00 82 1012.1
20201031010122 75 342 2.0 8.0 0.00 0.00 0.00 82 1012.0
20201031004655 75 327 0.0 5.0 0.00 0.00 0.00 82 1012.3
20201031003139 75 333 0.0 6.0 0.00 0.00 0.00 82 1012.2
20201031001635 75 331 0.0 6.0 0.00 0.00 0.00 82 1012.2
20201031000110 75 348 0.0 5.0 0.00 0.00 0.00 82 1012.5
20201030234556 75 355 3.0 6.0 0.00 0.00 0.00 83 1011.9
20201030233143 75 317 2.0 9.0 0.00 0.00 0.00 84 1012.1
20201030231649 75 346 0.0 5.0 0.00 0.00 0.00 84 1012.5
20201030230108 74 340 0.0 6.0 0.00 0.00 0.00 85 1012.2
20201030224612 74 341 1.0 3.0 0.00 0.00 0.00 85 1012.6
20201030223111 74 326 0.0 3.0 0.00 0.00 0.00 84 1012.6
20201030221554 74 329 1.0 3.0 0.00 0.00 0.00 84 1012.6